• Join FlightAware (Why Join?)
  • Login
  • US Flag 
12:41AM EDT


 

Airport Tracker/Info


-or-


 

Live Flight TrackerFlight Track Log ✈ FLG3432 ✈ 29-Jun-2013 ✈ KSLC - KDFW

Flight Track Log - Related Links

Times and Time Zones

All times are in EDT time to prevent confusion due to time zone crossing. See the FLG3432 flight status page for this flight to view local times or setup timezone preferences in your user account.

Time Position Orientation Groundspeed Altitude Reporting Facility
EDT Latitude Longitude Course Direction KTS MPH feet Rate Location/Type
09:02PM 40.8178 -111.9811 163° South 180 207 5,000  Level Salt Lake Center
09:03PM 40.8683 -111.9867 355° North 201 231 6,300 1,560 Climbing Salt Lake Center
09:04PM 40.9081 -111.9908 355° North 218 251 7,600 1,440 Climbing Salt Lake Center
09:05PM 41.1194 -111.9375 48° Northeast  Level FlightAware Approximate
09:05PM 40.9744 -111.9992 355° North 238 274 8,900  Level Salt Lake Center
09:06PM 41.1218 -111.7870 108° East  Level FlightAware Approximate
09:06PM 41.0514 -112.0011 359° North 277 319 10,800  Level Salt Lake Center
09:07PM 41.0178 -111.7229 163° South  Level FlightAware Approximate
09:07PM 41.0678 -111.9036 77° East 306 352 12,400  Level Salt Lake Center
09:08PM 40.9786 -111.8200 145° Southeast 358 412 13,300 1,260 Climbing Salt Lake Center
09:09PM 40.8908 -111.7439 147° Southeast 376 433 15,100 1,680 Climbing Salt Lake Center
09:10PM 40.8011 -111.6650 146° Southeast 386 444 16,800 1,620 Climbing Salt Lake Center
09:11PM 40.7361 -111.5517 127° Southeast 408 470 18,500 1,560 Climbing Salt Lake Center
09:12PM 40.6953 -111.4128 111° Southeast 409 471 20,100 1,440 Climbing Salt Lake Center
09:13PM 40.6536 -111.2697 111° Southeast 419 482 21,500 1,380 Climbing Salt Lake Center
09:14PM 40.6108 -111.1225 111° Southeast 428 493 23,000 1,260 Climbing Salt Lake Center
09:15PM 40.5664 -110.9719 111° Southeast 441 507 24,100 960 Climbing Salt Lake Center
09:16PM 40.5119 -110.7878 111° Southeast 451 519 25,000 420 Climbing Salt Lake Center
09:17PM 40.4592 -110.6478 116° Southeast 432 497 25,000  Level Salt Lake Center
09:18PM 40.4069 -110.5197 118° Southeast 434 499 25,000  Level Salt Lake Center
09:19PM 40.3419 -110.3575 118° Southeast 448 516 25,000  Level Salt Lake Center
09:20PM 40.2686 -110.2325 128° Southeast 454 522 25,000  Level Salt Lake Center
09:21PM 40.1414 -110.1481 153° Southeast 461 531 25,000  Level Salt Lake Center
09:22PM 40.0350 -110.0731 152° Southeast 455 524 25,000  Level Salt Lake Center
09:23PM 39.9275 -109.9978 152° Southeast 457 526 25,000  Level Salt Lake Center
09:24PM 39.8042 -109.9128 152° Southeast 453 521 25,000  Level Salt Lake Center
09:25PM 39.6986 -109.8383 152° Southeast 452 520 25,000  Level Salt Lake Center
09:26PM 39.5756 -109.7522 152° Southeast 451 519 25,000  Level Salt Lake Center
09:27PM 39.4694 -109.6797 152° Southeast 451 519 25,000  Level Salt Lake Center
09:28PM 39.3633 -109.6067 152° Southeast 452 520 25,000  Level Salt Lake Center
09:29PM 39.2383 -109.5217 152° Southeast 455 524 25,000  Level Salt Lake Center
09:30PM 39.1322 -109.4472 151° Southeast 455 524 25,000  Level Salt Lake Center
09:31PM 39.0072 -109.3628 152° Southeast 458 527 25,000  Level Salt Lake Center
09:32PM 38.8997 -109.2900 152° Southeast 457 526 25,000  Level Salt Lake Center
09:33PM 38.7731 -109.2033 152° Southeast 460 529 25,000  Level Salt Lake Center
09:34PM 38.6656 -109.1308 152° Southeast 460 529 25,000  Level Salt Lake Center
09:35PM 38.5575 -109.0581 152° Southeast 459 528 25,000  Level Salt Lake Center
09:36PM 38.5214 -109.0333 152° Southeast 456 525 25,000  Level Denver Center
09:37PM 38.3986 -108.9017 140° Southeast 462 532 25,000  Level Denver Center
09:38PM 38.3072 -108.7675 131° Southeast 451 519 25,000  Level Denver Center
09:39PM 38.2450 -108.6339 121° Southeast 456 525 25,000  Level Denver Center
09:40PM 38.1875 -108.4978 118° Southeast 455 524 25,000  Level Denver Center
09:41PM 38.1142 -108.3425 121° Southeast 458 527 25,000  Level Denver Center
09:42PM 38.0111 -108.2333 140° Southeast 458 527 25,000  Level Denver Center
09:43PM 37.9031 -108.1608 152° Southeast 457 526 25,000  Level Denver Center
09:44PM 37.7947 -108.0917 153° Southeast 456 525 25,000  Level Denver Center
09:45PM 37.6808 -108.0378 159° South 456 525 25,000  Level Denver Center
09:46PM 37.5489 -107.9744 159° South 455 524 25,000  Level Denver Center
09:47PM 37.4164 -107.9106 159° South 454 522 25,000  Level Denver Center
09:48PM 37.3042 -107.8581 160° South 451 519 25,000  Level Denver Center
09:49PM 37.1919 -107.8047 159° South 450 518 25,000  Level Denver Center
09:50PM 37.0617 -107.7428 159° South 447 514 25,000  Level Denver Center
09:52PM 36.9506 -107.6897 159° South 445 512 25,000  Level Denver Center
09:53PM 36.8022 -107.6200 159° South 446 513 25,000  Level Denver Center
09:54PM 36.6911 -107.5697 160° South 443 510 25,000  Level Denver Center
09:55PM 36.5631 -107.5092 159° South 441 507 25,000  Level Denver Center
09:56PM 36.4525 -107.4583 160° South 440 506 25,000  Level Denver Center
09:57PM 36.3419 -107.4072 160° South 441 507 25,000  Level Denver Center
09:58PM 36.2133 -107.3478 160° South 440 506 25,000  Level Denver Center
09:59PM 36.0919 -107.2922 160° South 444 511 25,000  Level Denver Center
10:00PM 35.9761 -107.2403 160° South 443 510 25,000  Level Denver Center
10:01PM 35.8608 -107.1861 159° South 443 510 25,000  Level Denver Center
10:02PM 35.7675 -107.1436 160° South 445 512 25,000  Level Denver Center
10:03PM 35.6850 -106.9583 119° Southeast 444 511 25,000  Level Albuquerque Center
10:04PM 35.6472 -106.8208 109° East 443 510 25,000  Level Albuquerque Center
10:05PM 35.6078 -106.6714 108° East 446 513 25,000  Level Albuquerque Center
10:06PM 35.5686 -106.5267 108° East 445 512 25,000  Level Albuquerque Center
10:07PM 35.5297 -106.3822 108° East 444 511 25,000  Level Albuquerque Center
10:08PM 35.4900 -106.2372 109° East 446 513 25,000  Level Albuquerque Center
10:09PM 35.4503 -106.0925 109° East 446 513 25,000 -60 Level Albuquerque Center
10:10PM 35.4103 -105.9494 109° East 444 511 24,900  Descending Albuquerque Center
10:11PM 35.3711 -105.8125 109° East 442 509 25,000  Climbing Albuquerque Center
10:12PM 35.3242 -105.6433 109° East 443 510 25,000  Level Albuquerque Center
10:13PM 35.2781 -105.4997 111° Southeast 451 519 25,000  Level Albuquerque Center
10:14PM 35.2411 -105.3556 107° East 443 510 25,000  Level Albuquerque Center
10:15PM 35.1983 -105.2117 110° East 446 513 25,000  Level Albuquerque Center
10:16PM 35.1581 -105.0672 109° East 445 512 25,000  Level Albuquerque Center
10:17PM 35.1175 -104.9278 110° East 437 503 25,000  Level Albuquerque Center
10:18PM 35.0783 -104.7914 109° East 427 491 25,000  Level Albuquerque Center
10:19PM 35.0392 -104.6536 109° East 428 493 25,000  Level Albuquerque Center
10:20PM 34.9992 -104.5203 110° East 419 482 25,000  Level Albuquerque Center
10:21PM 34.9683 -104.3775 105° East 432 497 25,000  Level Albuquerque Center
10:22PM 34.9389 -104.2339 104° East 437 503 25,000  Level Albuquerque Center
10:23PM 34.9089 -104.0900 104° East 439 505 25,000  Level Albuquerque Center
10:24PM 34.8856 -103.9450 101° East 436 502 25,000  Level Albuquerque Center
10:25PM 34.8583 -103.7983 103° East 441 507 25,000  Level Albuquerque Center
10:26PM 34.8269 -103.6267 103° East 444 511 25,000  Level Albuquerque Center
10:27PM 34.7947 -103.4797 105° East 446 513 25,000  Level Albuquerque Center
10:28PM 34.7608 -103.3322 106° East 449 517 25,000  Level Albuquerque Center
10:29PM 34.7281 -103.1875 105° East 443 510 25,000  Level Albuquerque Center
10:30PM 34.7231 -103.0525 93° East 411 473 25,000  Level Albuquerque Center
10:31PM 34.7511 -102.9189 76° East 406 467 25,000  Level Albuquerque Center
10:32PM 34.7828 -102.7892 73° East 400 460 25,000  Level Albuquerque Center
10:34PM 34.7922 -102.6575 85° East 398 458 25,000  Level Albuquerque Center
10:35PM 34.7564 -102.5403 110° East 407 468 25,000  Level Albuquerque Center
10:36PM 34.7147 -102.4128 112° Southeast 408 470 25,000  Level Albuquerque Center
10:37PM 34.6556 -102.2656 116° Southeast 407 468 25,000  Level Albuquerque Center
10:38PM 34.6025 -102.1419 118° Southeast 413 475 25,000  Level Albuquerque Center
10:39PM 34.5650 -102.0108 109° East 415 478 25,000  Level Albuquerque Center
10:40PM 34.5283 -101.8786 109° East 416 479 25,000  Level Albuquerque Center
10:41PM 34.4914 -101.7453 109° East 418 481 25,000  Level Albuquerque Center
10:42PM 34.4542 -101.6094 108° East 423 487 25,000  Level Albuquerque Center
10:43PM 34.4175 -101.4756 108° East 424 488 25,000  Level Albuquerque Center
10:44PM 34.3808 -101.3436 109° East 420 483 25,000  Level Albuquerque Center
10:45PM 34.3433 -101.2103 109° East 419 482 25,000  Level Albuquerque Center
10:46PM 34.2994 -101.0508 108° East 419 482 25,000  Level Albuquerque Center
10:47PM 34.2839 -100.9128 98° East 418 481 25,000  Level Albuquerque Center
10:48PM 34.2592 -100.7706 102° East 428 493 25,000  Level Albuquerque Center
10:49PM 34.2183 -100.6006 106° East 429 494 25,000  Level Fort Worth Center
10:50PM 34.1842 -100.4564 106° East 434 499 25,000  Level Fort Worth Center
10:51PM 34.1522 -100.3122 105° East 441 507 25,000  Level Fort Worth Center
10:52PM 34.1178 -100.1681 106° East 441 507 25,000  Level Fort Worth Center
10:53PM 34.0836 -100.0214 106° East 446 513 25,000  Level Fort Worth Center
10:54PM 34.0469 -99.8725 107° East 446 513 25,000  Level Fort Worth Center
10:55PM 34.0122 -99.7261 106° East 446 513 25,000  Level Fort Worth Center
10:56PM 33.9708 -99.5797 109° East 446 513 25,000  Level Fort Worth Center
10:57PM 33.9275 -99.4336 110° East 446 513 25,000  Level Fort Worth Center
10:58PM 33.8839 -99.2875 110° East 456 525 25,000  Level Fort Worth Center
10:59PM 33.8381 -99.1364 110° East 462 532 25,000  Level Fort Worth Center
11:00PM 33.7900 -98.9731 109° East 468 539 25,000  Level Fort Worth Center
11:01PM 33.7481 -98.8200 108° East 468 539 25,000  Level Fort Worth Center
11:02PM 33.7017 -98.6669 110° East 468 539 25,000  Level Fort Worth Center
11:03PM 33.6550 -98.5164 110° East 468 539 25,000  Level Fort Worth Center
11:04PM 33.6083 -98.3686 111° Southeast 468 539 25,000 -900 Level Fort Worth Center
11:05PM 33.5675 -98.2311 110° East 473 544 23,300 -2,280 Descending Fort Worth Center
11:06PM 33.5161 -98.0761 112° Southeast 469 540 20,500 -2,700 Descending Fort Worth Center
11:07PM 33.4772 -97.9514 110° East 450 518 18,000 -2,820 Descending Fort Worth Center
11:08PM 33.4319 -97.8017 110° East 444 511 14,900 -2,400 Descending Fort Worth Center
11:09PM 33.3944 -97.6922 112° Southeast 408 470 13,300 -1,620 Descending Fort Worth Center
11:10PM 33.3364 -97.5900 124° Southeast 379 436 11,700 -1,200 Descending Fort Worth Center
11:11PM 33.2508 -97.4856 134° Southeast 389 448 11,000 -360 Descending Fort Worth Center
11:12PM 33.1800 -97.4061 137° Southeast 389 448 11,000  Level Fort Worth Center
11:13PM 33.0942 -97.3069 136° Southeast 394 453 11,000  Level Fort Worth Center
11:14PM 33.0275 -97.2275 135° Southeast 389 448 11,000 -120 Level Fort Worth Center
11:15PM 32.9606 -97.1658 142° Southeast 353 406 10,800 -960 Descending Fort Worth Center
11:16PM 32.8811 -97.1711 183° South 290 334 9,100 -1,860 Descending Fort Worth Center
11:17PM 32.8081 -97.1711 180° South 276 318 7,100 -2,280 Descending Fort Worth Center
11:18PM 32.7286 -97.1639 176° South 271 312 4,600 -2,100 Descending Fort Worth Center
11:19PM 32.7264 -97.0997 92° East 172 198 3,000 -1,620 Descending Fort Worth Center